Theta_e
287 288 288 287 287 288 286 287 285 286 287 289 292 294 297 300 298 296 296 296 298 299 301 300 299 300 300 300 299 298 297 295 291 289 289 287 286 285 286 286 286 285 285 285
282 287 288 285 287 288 288 287 287 286 287 292 297 298 296 294 294 292 295 296 298 298 298 300 300 299 298 299 298 297 296 294 291 288 287 286 286 286 285 285 284 285 284 284
277 285 285 280 285 286 288 288 288 284 290 292 292 292 293 293 294 295 295 295 296 297 298 299 301 301 298 298 298 296 295 295 291 289 288 286 285 285 284 284 284 283 284 284
278 282 274 282 288 290 288 290 290 290 290 292 292 292 295 297 295 294 295 295 296 298 298 299 300 301 301 299 297 296 296 294 291 289 288 287 286 285 284 284 284 284 283 283
278 278 281 283 285 286 285 285 290 290 289 290 292 293 293 295 295 295 296 297 297 299 298 299 300 301 300 298 297 296 294 293 291 290 288 287 285 285 284 283 283 283 283 283
280 276 274 281 288 290 290 280 289 291 289 290 291 286 290 295 295 296 296 297 297 298 299 299 299 299 298 297 296 295 294 293 292 291 288 286 285 284 284 284 282 283 282 282
278 276 280 286 288 291 279 280 290 291 291 291 290 291 293 295 295 295 295 297 298 297 297 297 298 297 296 296 294 295 294 291 289 289 287 286 285 284 283 282 282 282 281 282
279 276 274 287 288 283 287 291 291 292 292 292 292 292 293 294 294 295 296 296 297 296 296 296 296 296 295 294 295 293 292 289 287 286 285 285 284 283 282 281 280 280 280 281
278 278 285 286 287 289 290 290 291 291 292 293 293 293 293 293 294 295 295 297 298 297 296 296 296 295 293 292 291 289 287 286 285 285 285 284 282 281 281 281 280 279 279 279
281 283 283 286 287 290 291 291 292 294 293 293 293 294 293 293 294 295 295 297 298 296 294 292 293 292 292 291 289 287 285 285 285 284 283 283 285 284 282 280 280 279 279 279
279 282 287 289 290 290 291 293 293 294 294 293 293 293 293 293 293 295 296 297 298 295 293 291 290 290 289 288 288 286 286 285 284 284 284 285 284 283 282 283 282 280 279 280
277 283 286 285 288 290 290 292 293 294 293 293 293 292 293 294 294 295 295 295 297 295 294 291 290 289 288 288 288 286 285 285 284 283 282 283 282 281 283 283 283 283 281 281
281 284 285 287 288 288 288 292 292 292 292 291 292 293 294 294 294 293 295 295 295 294 296 293 291 290 288 288 288 286 285 284 283 282 282 281 281 280 279 282 283 282 282 281
285 285 283 285 284 288 288 290 292 293 292 292 292 294 294 294 294 292 289 289 292 295 294 295 293 289 287 287 287 286 285 284 284 284 283 282 281 281 281 280 279 281 282 281
284 286 285 286 286 286 287 287 288 290 291 290 292 292 293 291 289 287 286 287 289 290 288 289 291 289 288 287 287 286 286 285 285 285 284 283 282 282 281 281 280 280 281 280
285 285 285 284 284 285 286 287 287 290 289 288 287 287 287 287 285 284 284 285 284 283 285 284 286 288 291 289 288 286 286 285 285 284 283 283 282 281 281 281 281 280 279 279
283 282 284 284 285 286 287 289 289 290 288 286 284 285 285 284 283 283 284 284 284 283 284 284 283 286 286 288 288 287 287 285 284 284 282 282 282 282 281 281 281 281 281 281
286 286 287 287 289 289 289 289 288 288 286 285 284 283 281 281 282 283 283 284 284 284 285 284 285 286 286 286 288 288 286 285 285 284 283 282 282 282 281 281 281 281 281 281
287 286 288 290 288 287 286 286 285 284 283 283 282 282 283 283 283 283 284 283 283 283 285 285 284 285 287 287 286 288 288 286 284 285 284 283 282 282 281 282 281 281 281 280
287 287 287 286 287 286 283 283 283 281 282 284 284 282 282 282 283 283 283 282 283 284 284 284 285 286 286 287 285 287 286 286 285 285 284 283 282 282 282 281 281 281 281 281
286 284 282 283 283 284 283 283 283 283 284 282 283 282 281 282 282 282 281 281 283 284 283 282 283 285 286 286 287 287 286 285 285 284 282 282 282 282 281 281 281 281 280 281
286 284 283 283 283 283 284 284 284 281 281 280 280 283 281 280 281 282 282 281 283 282 280 281 282 282 283 284 285 286 286 286 285 284 283 282 281 280 281 281 280 280 279 280
284 284 283 283 283 284 284 284 284 282 280 281 282 283 282 282 282 281 280 282 281 280 279 279 279 279 281 284 285 285 285 285 285 284 283 282 282 281 281 280 280 279 278 278
284 284 284 285 285 284 283 283 282 282 281 282 283 283 283 283 283 283 282 280 279 279 280 281 282 281 283 285 285 285 285 285 285 284 283 282 283 282 281 280 279 279 279 278
283 284 284 283 283 283 284 285 285 285 284 285 284 284 283 283 282 282 280 279 278 279 280 281 282 283 284 285 285 285 285 285 285 284 284 283 283 282 282 281 280 280 279 278
285 284 284 284 285 285 285 286 285 285 285 285 284 284 283 281 279 279 277 276 279 280 280 282 282 283 284 284 284 284 284 284 284 284 284 284 283 282 282 282 281 280 279 278
285 285 285 284 284 285 285 285 285 285 285 285 284 283 281 279 278 278 276 279 280 280 280 281 282 282 282 283 283 283 284 284 283 284 284 284 283 282 282 281 281 279 278 277
Wind_Speed
14 20 14 14 15 12 10 7 7 8 8 16 15 16 15 12 9 6 5 3 5 6 7 6 7 8 10 13 14 14 15 16 16 16 13 14 17 17 14 12 12 13 13 12
24 24 19 17 19 18 17 7 3 7 10 9 13 13 10 9 6 2 5 6 6 6 1 6 10 11 10 14 14 14 14 13 13 12 13 14 14 16 15 14 13 13 12 13
15 11 11 16 25 19 8 12 11 11 12 13 15 10 8 7 4 6 5 2 2 3 0 2 6 9 13 13 13 15 15 13 15 15 16 16 17 18 19 19 16 15 14 16
8 8 10 6 4 18 20 15 14 9 9 11 8 4 5 4 9 7 4 2 3 4 5 4 3 6 10 11 13 15 16 16 15 17 17 16 17 17 19 17 16 14 14 15
6 10 6 5 4 8 13 13 14 16 9 7 9 7 3 6 4 3 4 5 6 6 3 3 5 6 8 11 13 14 14 15 17 16 18 18 18 18 15 17 16 14 12 14
4 5 5 7 8 4 6 3 4 10 8 9 9 6 2 6 1 6 7 6 7 8 5 4 4 4 6 9 11 14 15 14 14 16 17 18 18 18 15 15 15 13 13 12
9 5 4 4 14 9 8 2 8 5 8 12 5 2 5 4 3 2 4 7 6 4 4 5 4 2 3 6 11 10 8 10 12 13 14 15 15 13 14 14 13 13 13 12
5 7 3 10 5 1 5 5 3 5 6 7 8 6 5 4 4 5 7 7 5 4 4 4 4 1 3 6 5 7 9 11 11 12 11 12 15 13 15 16 16 14 13 12
4 4 4 5 5 8 9 8 5 4 3 7 9 6 5 5 3 2 3 4 3 2 5 7 7 4 1 1 6 8 9 9 10 12 12 15 17 17 15 15 14 13 11 11
3 4 6 2 6 3 4 7 8 4 2 3 6 4 5 5 4 4 4 3 3 3 8 7 7 7 6 4 7 9 9 9 10 12 13 14 12 13 13 14 13 12 12 12
6 6 4 6 6 4 6 4 4 6 1 5 4 3 4 5 5 4 5 4 4 6 5 4 3 4 4 3 6 7 9 9 9 9 11 10 8 9 10 11 13 14 12 12
3 4 3 2 4 7 7 6 5 3 2 2 0 3 4 5 5 4 5 3 4 5 5 4 4 3 4 5 6 8 9 9 9 8 8 8 9 8 8 10 16 17 19 13
5 2 5 9 7 6 6 7 4 6 5 4 2 2 6 6 5 4 6 4 5 4 5 6 7 5 5 6 9 9 9 9 8 9 9 9 9 9 10 10 14 17 20 20
9 8 9 7 7 7 7 6 6 8 4 4 4 6 5 7 8 6 5 4 5 5 5 5 6 8 8 8 7 8 9 10 9 9 9 9 9 9 9 11 11 10 15 15
16 13 14 16 14 15 13 10 6 5 6 2 3 6 5 7 8 5 4 5 4 6 7 6 1 5 9 9 10 9 9 8 8 8 8 9 9 9 9 10 10 10 9 11
10 10 13 13 13 14 11 9 9 6 5 4 6 5 7 7 7 6 6 6 5 5 6 4 2 2 8 11 10 8 8 9 9 8 8 10 9 9 9 10 11 11 10 9
11 9 10 6 9 11 12 9 9 6 7 6 7 5 6 7 6 5 5 6 5 4 3 4 4 4 2 7 10 7 8 8 11 8 9 8 8 10 10 11 11 10 10 12
12 8 5 5 7 8 8 8 6 8 8 8 7 7 4 5 5 4 4 4 4 3 4 2 2 1 2 4 9 8 7 9 10 9 9 10 10 9 9 10 11 11 11 12
6 6 1 1 1 4 5 7 10 11 9 7 6 6 5 3 4 3 2 2 4 4 1 2 4 5 3 2 5 6 9 10 9 9 10 11 10 10 10 11 12 12 12 12
10 8 6 7 7 7 9 8 12 8 6 6 5 5 4 4 4 3 4 2 3 2 3 5 6 6 5 3 5 6 7 9 10 9 9 10 11 11 11 13 12 12 12 13
10 9 8 8 7 7 8 6 5 7 6 6 5 5 4 4 4 4 4 3 3 4 5 5 5 5 4 5 5 6 8 8 8 9 10 10 11 11 11 12 12 11 11 12
4 6 6 7 5 6 6 4 6 4 5 3 1 4 2 2 2 4 2 3 3 7 5 5 5 7 7 8 5 6 7 8 8 8 8 9 9 10 11 11 12 11 11 11
4 3 5 4 5 5 2 2 3 5 3 3 3 3 2 1 2 4 5 5 5 6 6 6 8 10 11 7 5 6 6 7 7 7 8 8 8 9 10 11 10 11 11 12
4 3 2 1 3 4 3 2 3 4 2 3 3 3 2 1 1 1 2 4 7 7 6 6 7 9 10 5 4 4 3 4 5 5 6 8 7 8 8 9 9 9 10 11
4 3 2 1 2 2 2 4 4 4 3 2 3 3 3 2 1 2 3 4 6 6 6 8 9 7 4 3 4 3 1 1 4 5 6 7 7 8 8 9 9 10 10 10
3 4 4 6 4 3 2 2 2 2 2 2 1 2 3 2 2 3 3 5 4 6 5 5 5 5 4 4 4 4 4 2 3 3 4 5 6 6 6 7 8 9 8 9
5 4 4 4 4 5 5 5 4 3 3 3 2 3 3 2 3 3 4 3 3 4 4 5 5 6 5 5 5 5 4 4 4 4 4 4 4 5 6 6 7 7 7 8
Wind_Direction
247 249 247 239 243 204 215 227 215 157 189 187 204 225 220 236 255 269 271 310 285 231 212 202 197 212 207 197 181 182 176 170 173 168 160 155 154 157 155 156 162 155 157 155
291 250 231 231 225 219 218 208 179 174 239 170 188 201 216 219 223 230 70 59 36 26 320 220 206 201 206 205 197 180 196 178 155 152 150 160 164 158 154 158 155 158 163 155
282 325 249 227 218 189 181 192 203 187 228 181 212 214 218 231 169 122 103 68 15 39 169 230 230 210 211 207 188 190 188 180 177 165 167 169 163 164 162 162 163 167 159 162
272 287 231 341 321 214 211 219 208 210 170 183 174 122 118 111 125 121 118 76 344 324 322 317 273 221 220 199 196 192 194 184 174 171 169 169 171 178 163 162 166 168 162 166
243 242 269 270 176 195 189 236 209 225 160 140 98 96 131 112 93 112 62 8 338 312 277 275 274 267 224 203 200 202 196 189 185 176 169 168 174 172 171 159 159 162 159 161
229 263 240 25 5 317 195 254 346 191 157 139 128 166 175 183 63 35 27 358 323 316 310 275 291 271 210 202 199 203 201 193 181 181 170 175 172 169 167 157 151 144 151 162
215 228 254 354 321 307 199 47 341 62 132 142 149 84 116 102 86 34 4 348 348 347 356 352 9 96 186 194 216 213 190 165 175 171 171 171 159 157 149 145 138 146 154 152
214 212 201 348 338 114 348 329 34 91 112 117 119 126 137 135 76 31 6 357 6 29 63 56 78 113 237 229 229 185 163 158 160 158 160 155 149 143 145 141 143 151 155 152
357 14 317 356 9 18 358 331 5 15 51 125 127 127 112 69 55 22 357 353 285 23 58 39 31 23 269 122 125 121 130 144 149 150 151 155 154 154 149 154 155 156 160 159
296 177 343 106 297 318 28 306 311 305 122 122 112 123 105 100 65 21 23 58 110 86 64 42 21 19 33 99 122 125 133 141 146 149 154 162 167 167 159 161 156 156 163 164
290 290 180 202 260 303 351 349 274 269 162 125 129 146 128 125 100 63 48 38 105 86 91 90 39 66 51 94 124 125 132 136 139 150 159 162 166 163 162 164 164 164 165 166
262 301 331 320 335 343 345 12 22 213 175 105 325 156 142 143 107 100 85 64 89 90 118 137 173 156 142 134 136 145 147 149 146 140 143 150 143 124 111 137 150 154 159 171
259 236 264 276 288 283 278 258 360 307 274 308 279 146 161 141 136 115 77 49 49 81 146 161 169 168 170 160 158 161 161 158 147 148 151 152 152 150 145 137 149 169 174 174
253 270 271 251 278 296 302 296 291 280 331 288 229 150 152 136 116 92 72 6 5 24 77 164 170 168 171 167 163 160 161 161 168 167 160 155 155 155 152 154 160 166 176 178
252 233 249 277 280 274 278 284 272 231 292 48 56 118 120 114 104 95 58 11 57 54 46 41 100 171 171 170 168 168 169 170 167 165 163 160 157 158 156 159 162 157 161 177
255 251 253 252 264 263 265 266 243 196 161 130 98 89 97 92 91 88 71 49 48 31 6 12 14 357 192 180 173 165 169 167 168 163 162 166 163 163 163 168 165 162 165 170
242 243 239 254 246 254 247 230 212 171 134 125 117 114 95 100 89 62 49 40 29 7 3 345 326 334 219 184 183 177 172 168 175 176 170 176 182 177 172 170 171 171 175 174
220 233 220 263 269 268 260 212 159 127 132 135 120 104 80 89 83 50 36 22 359 14 12 34 329 328 353 196 202 192 177 174 181 184 178 178 177 181 179 179 176 175 173 172
217 219 126 27 79 97 96 110 110 108 110 113 115 104 94 78 76 57 24 350 335 323 37 329 326 309 283 194 202 208 199 188 187 188 187 183 181 178 183 186 183 179 175 172
96 91 88 81 69 101 99 95 89 118 133 118 100 92 84 59 43 20 3 342 290 348 15 359 323 293 297 272 204 207 209 199 196 194 187 185 186 185 185 188 186 183 179 180
85 89 89 84 81 83 81 90 124 108 99 88 89 80 69 51 33 360 7 346 10 7 354 341 326 306 315 292 263 226 210 209 203 196 188 191 189 188 186 186 184 186 180 182
49 96 97 101 89 78 77 80 82 96 94 96 114 91 94 44 17 358 299 333 351 353 342 324 315 317 316 301 270 247 225 215 208 195 191 191 190 186 186 186 184 181 183 182
18 59 110 104 113 116 131 140 98 86 127 167 171 124 115 340 349 345 347 3 345 347 341 325 317 309 309 290 263 249 235 217 207 194 191 187 185 187 188 187 184 179 178 181
2 27 44 114 128 130 162 176 159 167 175 183 180 196 204 255 290 127 357 358 355 344 326 316 318 311 300 284 279 267 231 204 198 182 173 175 183 180 181 180 178 175 176 179
308 295 208 208 181 212 226 187 186 195 202 213 208 195 190 192 299 9 8 1 348 348 338 332 337 320 309 320 312 311 333 172 168 164 168 174 182 182 181 180 178 180 177 176
286 235 230 228 226 226 227 188 208 191 215 221 170 144 130 103 82 53 26 13 345 355 356 358 358 349 8 13 6 7 16 61 118 136 152 160 166 169 171 174 171 173 170 169
302 280 203 199 200 191 196 204 207 222 213 180 140 150 136 120 88 66 39 15 16 17 1 13 14 23 30 36 43 45 48 55 65 92 106 121 133 140 146 149 149 146 147 147